Starlink 32759

operational
NORAD ID: 62751 Int'l Des: 2025-014 Owner: SPXS Country: US Constellation: starlink
LEOCIRCULAR

About Starlink 32759

Description loading...

Live Position

Loading 3D Globe...

Upcoming Passes

Altitude History

Altitude vs Time

uPlot chart will show altitude changes over time

Two-Line Element Set

1 62751U 25014S 25350.18631310 .00018642 00000-0 68467-3 0 9996
2 62751 43.0010 269.6969 0001438 262.4793 97.5895 15.27607836 50448
Epoch: Dec 16, 2025 • Age: 26 hours

Current Status

Altitude 486.7 km
Velocity 7.62 km/s
Sub-Earth Point -19.71°S, 77.48°W
Launch Date Jan 21, 2025
Age 0.9 years
Type internet

Technical Details

Classification Payload
Mass 730.00 kg
Dry Mass 700.00 kg
Total Mass 730.00 kg
Length 0.30 m
Diameter 4.10 m
Span 29.00 m
Shape Box + pan
Manufacturer SPXS
Bus Type Starlink V2M
Phase Status In Orbit
Owner/State SPXS/US

Large Constellations

Loading constellations...